Chicago DuPage, IL

10:32 PM CST on November 13, 2019 (GMT -0600)
Du Page

Weather History for KDPA - October, 2019

Change the Weather History Date:

Sunday, October 20, 2019

  Actual Average Record
Temperature  
Mean Temperature 58 °F 51 °F  
Max Temperature 67 °F 62 °F 84 °F (2003)
Min Temperature 48 °F 41 °F 26 °F (2018)
Degree Days  
Heating Degree Days 7 14  
Month to date heating degree days 208 225  
Since 1 July heating degree days 215 336  
Cooling Degree Days 0 0  
Month to date cooling degree days 17 11  
Year to date cooling degree days 1003 814  
Growing Degree Days 7 (Base 50)    
Moisture  
Dew Point 46 °F    
Average Humidity 75    
Maximum Humidity 92    
Minimum Humidity 38    
Precipitation  
Precipitation 0.00 in 0.10 in 0.17 in (2008)
Month to date precipitation 3.42 2.12  
Year to date precipitation 37.67 31.04  
Sea Level Pressure  
Sea Level Pressure 29.87 in    
Wind  
Wind Speed 7 mph (NE)    
Max Wind Speed 17 mph    
Max Gust Speed 20 mph    
Visibility 8 miles    
Events      
T = Trace of Precipitation, MM = Missing Value Source: NWS Daily Summary

Daily Weather History Graph

Daily Weather History Graph

Search for Another Location

Airport or City:

Astronomy

Oct. 20, 2019 Rise Set
Actual Time 7:10 AM CDT 6:04 PM CDT
Civil Twilight 6:42 AM CDT 6:32 PM CDT
Nautical Twilight 6:10 AM CDT 7:04 PM CDT
Astronomical Twilight 5:37 AM CDT 7:36 PM CDT
Moon 11:08 PM CDT (10/20) 1:42 PM CDT (10/20)
Length of Visible Light 11h 49m
Length of Day
10h 53m
Waning Gibbous, 59% of the Moon is Illuminated
Oct 20
Waning Gibbous
Oct 21
Last Quarter
Oct 27
New
Nov 4
First Quarter
Nov 12
Full

Hourly Weather History & Observations

Time (CDT) Temp. Dew Point Humidity Pressure Visibility Wind Dir Wind Speed Gust Speed Precip Events Conditions
12:52 AM 57.0 °F 48.9 °F 74% 29.76 in 10.0 mi WNW 6.9 mph - N/A   Overcast
1:49 AM 55.4 °F 48.2 °F 77% 29.77 in 10.0 mi Calm Calm - N/A   Overcast
1:52 AM 55.9 °F 48.9 °F 77% 29.77 in 10.0 mi Calm Calm - N/A   Overcast
2:43 AM 55.0 °F 48.9 °F 80% 29.78 in 10.0 mi West 5.8 mph - N/A   Overcast
2:52 AM 55.0 °F 48.9 °F 80% 29.78 in 10.0 mi West 5.8 mph - N/A   Overcast
3:52 AM 54.0 °F 48.9 °F 83% 29.81 in 10.0 mi NW 15.0 mph - N/A   Overcast
4:52 AM 53.1 °F 48.0 °F 83% 29.82 in 10.0 mi NNW 6.9 mph - N/A   Overcast
5:39 AM 50.0 °F 45.0 °F 83% 29.83 in 10.0 mi NNW 5.8 mph - N/A   Scattered Clouds
5:52 AM 50.0 °F 45.0 °F 83% 29.83 in 10.0 mi NNW 4.6 mph - N/A   Partly Cloudy
6:52 AM 48.0 °F 44.1 °F 86% 29.86 in 9.0 mi West 3.5 mph - N/A   Scattered Clouds
7:02 AM 48.0 °F 44.1 °F 86% 29.86 in 8.0 mi WNW 4.6 mph - N/A   Mostly Cloudy
7:30 AM 50.0 °F 46.0 °F 86% 29.86 in 9.0 mi NNW 6.9 mph - N/A   Overcast
7:52 AM 50.0 °F 46.0 °F 86% 29.88 in 10.0 mi NW 10.4 mph - N/A   Overcast
8:52 AM 51.1 °F 46.0 °F 83% 29.91 in 10.0 mi NW 8.1 mph - N/A   Mostly Cloudy
9:18 AM 53.1 °F 46.0 °F 77% 29.92 in 10.0 mi NW 5.8 mph - N/A   Scattered Clouds
9:52 AM 55.0 °F 46.0 °F 72% 29.93 in 10.0 mi Calm Calm - N/A   Clear
10:52 AM 60.1 °F 46.9 °F 62% 29.92 in 10.0 mi North 4.6 mph - N/A   Clear
11:52 AM 62.1 °F 46.9 °F 58% 29.92 in 10.0 mi Calm Calm - N/A   Clear
12:52 PM 64.9 °F 45.0 °F 48% 29.91 in 10.0 mi ENE 5.8 mph - N/A   Clear
1:52 PM 66.0 °F 44.1 °F 45% 29.90 in 10.0 mi East 5.8 mph - N/A   Clear
2:52 PM 66.0 °F 42.1 °F 42% 29.89 in 10.0 mi East 8.1 mph - N/A   Clear
3:52 PM 66.0 °F 39.9 °F 38% 29.89 in 10.0 mi East 9.2 mph - N/A   Clear
4:52 PM 63.0 °F 42.1 °F 46% 29.90 in 10.0 mi East 6.9 mph - N/A   Clear
5:52 PM 59.0 °F 46.0 °F 62% 29.90 in 10.0 mi East 8.1 mph - N/A   Clear
6:52 PM 55.0 °F 46.9 °F 74% 29.91 in 10.0 mi East 6.9 mph - N/A   Clear
7:52 PM 52.0 °F 46.9 °F 83% 29.92 in 9.0 mi East 8.1 mph - N/A   Clear
8:38 PM 51.1 °F 46.9 °F 86% 29.91 in 6.0 mi ESE 8.1 mph - N/A   Partly Cloudy
8:52 PM 51.1 °F 46.9 °F 86% 29.91 in 5.0 mi East 8.1 mph - N/A   Mostly Cloudy
9:44 PM 51.1 °F 46.9 °F 86% 29.90 in 4.0 mi East 8.1 mph - N/A   Overcast
9:52 PM 51.1 °F 46.9 °F 86% 29.91 in 4.0 mi East 9.2 mph - N/A   Overcast
10:29 PM 51.1 °F 48.0 °F 89% 29.90 in 2.0 mi East 8.1 mph - N/A   Overcast
10:52 PM 51.1 °F 48.0 °F 89% 29.89 in 2.0 mi East 8.1 mph - N/A   Overcast
11:08 PM 51.1 °F 48.0 °F 89% 29.89 in 1.8 mi East 9.2 mph - N/A   Overcast
11:52 PM 51.1 °F 48.9 °F 92% 29.87 in 1.0 mi ENE 8.1 mph - N/A   Overcast